作者thnlkj0665 (灰色地带)
看板Baseball
标题[分享] 今日 佐佐木朗希
时间Sat Mar 5 16:33:52 2022
IP H R ER BB SO HR ERA NP
佐佐木朗希 5.0 2 0 0 1 9 0 0.00 65
今天在福冈PayPay巨蛋先发面对地主软银队
主投五局仅被击出两支短程一垒安打,飙出九次三振
而且只有出现一次保送
本场比赛最快球速达到个人最佳的163公里
整体均速则是维持在160.1公里
顺便附上佐佐木在今天比赛的投球片段
https://www.youtube.com/watch?v=fUrII2YYl6Q
--
--
※ 发信站: 批踢踢实业坊(ptt.cc), 来自: 150.117.39.40 (台湾)
※ 文章网址: https://webptt.com/cn.aspx?n=bbs/Baseball/M.1646469234.A.930.html
1F:推 huangjyuan: 刚看完 真的强 03/05 16:35
2F:推 phil10048196: 长得有点像秋山翔吾 03/05 16:35
3F:推 poiu0987yaaa: 均速已经比大谷强了 03/05 16:36
4F:推 LukeSkywaker: 球快到帽子都戴不住了 03/05 16:37
5F:推 kenkenken31: 日本也有deGrom级的投手了吗? 03/05 16:38
6F:推 qazthlin: 真 均速160 03/05 16:39
7F:推 ePaper: 帽子要换小一号的 03/05 16:39
8F:推 polanco: 现在去美国直接空降百大新秀第一名 03/05 16:40
9F:推 jeff95123: 均速100麦…. 03/05 16:40
10F:推 huangjyuan: 真的会空降第一名 03/05 16:41
11F:推 ricky158207: 不过对面的东滨也没掉分 还是软银赢球 03/05 16:42
12F:推 poiu0987yaaa: 他的直球看起来跟利刀一样 直接平射到捕手手套 03/05 16:43
13F:→ a2334436: 有一个漫画走出来的 03/05 16:45
14F:推 ZachBritton: 热身赛就这样 例行赛不就170了 03/05 16:47
15F:推 glenliu: 下个修黑欧他你 03/05 16:47
16F:→ appshjkli: 百大第一?不可能 03/05 16:50
17F:推 bananacookie: 均速160也太鬼神 03/05 16:51
18F:→ appshjkli: 现在第一名的可是两打Posey捏 03/05 16:51
19F:推 ZachBritton: 茂野吾郎腻帽子一直掉 03/05 16:52
20F:推 sixis: 捡帽子浪费太多体力 03/05 16:55
21F:推 sony1256: 好可怕 速球160 SFF149 这怎麽打 03/05 16:55
22F:推 lingling0000: 太强了吧...160+直球 145+指叉 控球也不错 03/05 16:57
23F:推 cschuan: 掉帽子表示状况好 03/05 16:59
24F:推 hsiehyu: 还好中日赛取消 03/05 17:03
25F:→ k33536: 头发太长太厚 帽子很难戴的紧 03/05 17:03
26F:推 l5i9hbba: 掉帽子 吾郎是你? 03/05 17:07
27F:推 minihyde: 18岁松川轻松接那犀利指叉也满变态的 03/05 17:08
28F:推 xandertco: 手臂可以撑多久? 速度那麽快不久就要开TJ。 03/05 17:08
29F:推 tteeccddyy: 均速比大谷还快 03/05 17:10
30F:推 flykind: 有够强 03/05 17:10
31F:推 s90523: 朗希说他自己今天状况不好喔XD 03/05 17:12
32F:推 s5894143: 这样身材就160了,还有可能更高级吗? 03/05 17:19
33F:推 ttyl5566: 妖怪 03/05 17:20
34F:推 gn1698: 台日交流赛没办 让佐佐木逃过一劫 03/05 17:22
35F:推 datader: 以超越DeGrom为目标吧! 03/05 17:24
36F:推 shadow6571: 帽子:欸这人是怎样 03/05 17:26
37F:推 blackwoody: 好扯!真的电动 03/05 17:27
38F:推 Edison1174: 大谷去年均速95.6MPH=153.85 km/hr 03/05 17:27
39F:推 ccf0423: 先发5局还能均160,这应该日职史上单场均速最快的SP了吧XD 03/05 17:32
40F:→ teremy: 天花板真高 03/05 17:34
41F:推 osvaldo4040: 大谷在日本19岁-152.3、20岁152.4、21岁154.8、22岁 03/05 17:34
42F:推 LukeSkywaker: 大谷到MLB就没什麽在催球速,一来大联盟打者不怕, 03/05 17:34
43F:→ osvaldo4040: 155.5 03/05 17:34
44F:→ LukeSkywaker: 二来保存体力 03/05 17:34
45F:→ LukeSkywaker: 只有决胜球才会催一下 03/05 17:35
46F:→ james91718: 均速160太扯了 03/05 17:36
47F:推 hijodedios36: 先发均速160 这啥妖怪 03/05 17:36
48F:推 kasim65: 20岁 直球均速160 变化球均速14x 直上大联盟也不奇怪 03/05 17:37
49F:推 jackwelch: 大谷之前在日本有一场直球均速159.71 03/05 17:39
50F:推 osvaldo4040: 大联盟想要的还要慢慢等,罗德应该不可能一下子就放 03/05 17:40
51F:→ osvaldo4040: 人,尤其一进来就先彻底保护养成了一年左右才放出来 03/05 17:40
52F:→ osvaldo4040: 实战XD 03/05 17:40
53F:推 teremy: 如果能像地瓜 100+连发也是非常难打 03/05 17:40
54F:→ jackwelch: 例行赛七局107球,5球163,31球破160 03/05 17:40
55F:→ Alvarez: 大谷均速159.7那场直球59颗 佐佐木今天36颗 一起比不公平 03/05 17:43
56F:推 ccf0423: 印象中那场是2016对阪神,第一次看到日职SP狂飙出这麽多颗 03/05 17:45
57F:→ ccf0423: 160XDD 03/05 17:45
58F:推 hsienlee: 均速160... 03/05 17:46
59F:推 a4268139: 感觉会比日职时期的达比修更强.. 03/05 17:47
60F:推 Giovinazzi99: 日本地瓜 希望别痛 03/05 17:48
61F:推 xman262: 野球魂觉醒直球170的男人 03/05 17:51
62F:推 stanley86300: 期待被大王教训 03/05 17:55
63F:→ Alvarez: 田中将大就比日职的软手油达强了 03/05 17:58
64F:推 Cliffx: 要上大联盟了 03/05 18:00
65F:推 alex813: 省下捡帽子的体力,至少再多投一局 03/05 18:01
66F:→ Alvarez: 佐佐木身体太单薄没在重训 投球应该还有保留 看能不能练 03/05 18:01
67F:→ Alvarez: 和大谷一样壮 或是他跟地瓜一样难长肉? 这样看了都怕怕的 03/05 18:01
68F:推 ases60909: 日本地瓜 03/05 18:04
69F:→ TBdrays: 罗德如果不能在他离开前拿一次冠军真的要检讨 03/05 18:05
70F:推 zaibright: 真的猛 日本真的每个世代都有人才出来耶,而且一代 03/05 18:05
71F:→ zaibright: 比一代强 03/05 18:05
72F:→ Alvarez: 大谷在呸呸蛋最快也是163 呸呸蛋最快纪录是Vieira的164 03/05 18:06
73F:推 ccf0423: 时代进步真可怕,以前平成怪物松坂单季均速约146,147左右 03/05 18:07
74F:→ ccf0423: 达比修最快均149,大谷155,这只令和怪物说不定能比平成怪 03/05 18:08
75F:推 kausan: 感觉会很痛 03/05 18:08
76F:→ Alvarez: 不过Vieira当时投得像使尽吃奶的力一样 03/05 18:08
77F:→ ccf0423: 物的单季均速多10公里Orz 03/05 18:08
78F:推 chargebro: 日本投手人才辈出 03/05 18:09
79F:→ strikeman: 大谷最快的球是在札幌蛋165 03/05 18:15
80F:推 kasim65: 天分吧 日本均速160的目前只有他吧 均速156以上也没很多 03/05 18:15
81F:→ kasim65: 恐怖的是他还不高且身材单薄 就能投成这样 然後体力问题? 03/05 18:16
82F:→ strikeman: 达尔还在大联盟,比较年轻的田中就已经先回来了。 03/05 18:17
83F:→ strikeman: 所以按某A的理论就是大联盟比较软...XD 03/05 18:18
84F:推 ccf0423: 佐佐木还没投完整季过,不好说单季均速能160或156以上 03/05 18:19
85F:推 littledos: 有影片吗 03/05 18:20
86F:嘘 s101881: 他怎麽可能没在重训,不要乱说 03/05 18:21
87F:→ strikeman: 不过今天看佐佐木投得还算轻松耶,真的怕.... 03/05 18:21
89F:推 JIYUI: 他是刚选进去身材单薄改造体态体能捏 不用太担心吧 03/05 18:23
90F:→ Alvarez: 没在重训是有媒体报导啊 没在跟的才别乱说 03/05 18:23
91F:→ strikeman: 媒体说的话可信度要打点折扣....这是常识吧... 03/05 18:25
92F:推 max0616: 均速160 夸张 03/05 18:25
93F:推 Cliffx: 帽子会掉反而代表他的状态很好 03/05 18:28
94F:→ Alvarez: 球团人员说法比你瞎脑补好多了 不然佐佐木哪点像有大肌肌 03/05 18:28
95F:推 littledos: 指叉149 03/05 18:32
96F:推 Stras37: 1米9 你说不高? 03/05 18:32
97F:推 LukeSkywaker: 电视上看起来瘦瘦的,现场看起来都很壮,如果可以在 03/05 18:36
98F:→ LukeSkywaker: 电视上看起来壮的,现场真的跟肌肉棒子一样了XD 03/05 18:36
99F:→ MikeChao: 他163丢得比大谷轻松 协调性更好.. 03/05 18:36
101F:推 gs8613789: 比打电动还扯 03/05 18:46
103F:推 scott0104: 真强 03/05 18:48
104F:推 bravery1117: 漫画演的是真的... 03/05 18:49
105F:推 qoqo039: 好强 03/05 18:50
106F:推 hank25790803: 丢完掉帽子其实蛮帅的XD 03/05 18:50
107F:推 x284yk6cjo5: 可怕 03/05 18:52
108F:推 bnb89225: 茂野吾郎?一直掉帽子 03/05 19:01
109F:推 edhuang: 均速160... 03/05 19:07
110F:推 nastycurry: 好狠 03/05 19:10
111F:推 b99202071: 再来的课题就是健康投完整年 03/05 19:19
112F:推 ratom0315: 我敢说佐佐木进职棒一定有增重。电视上看起来瘦瘦的投 03/05 19:29
113F:→ ratom0315: 手,实际上看起来很大只。就像deGrom在电视上看起来很 03/05 19:29
114F:→ ratom0315: 瘦,但其实很壮一样。不过投球机制也会影响训练的方向 03/05 19:29
115F:→ ratom0315: ,例如达比修就把下半身练得很壮,但deGrom则是相较比 03/05 19:29
116F:→ ratom0315: 较苗条,原因就是这两位投手的投球机制不一样。今年是 03/05 19:29
117F:→ ratom0315: 佐佐木首个完整赛季,等他投完整季再来评价他的表现吧 03/05 19:29
118F:→ ratom0315: 。 03/05 19:29
119F:推 megalodon35: 好猛喔 03/05 19:30
120F:推 a6444long: 狂 03/05 19:33
121F:推 HOLYXXXX: 鬼 03/05 19:37
122F:推 Yjizz: 期待感很够 03/05 19:39
123F:推 marty7976: 快又准 怪物 03/05 19:39
124F:→ wryyyyyyyy: 怪物 03/05 19:44
125F:推 barton50195: 掉帽子代表状况好 03/05 19:48
126F:→ SinShih: 朗希哥真正有够强! 03/05 19:49
127F:推 XD051: 150公里的指叉球到底怎麽打 03/05 19:49
128F:推 Adam6613: 罗德佐藤健 03/05 19:50
129F:→ BaRanKa: 看好他发光 他不只快还准 03/05 19:53
130F:推 chris1102: 好鬼 03/05 19:54
131F:推 CHJ1412: 怪物 03/05 20:12
132F:推 beoneg: 指叉球149怎麽打… 03/05 20:14
133F:推 tws80531: 日本怎一直有怪物投手出现 03/05 20:15
134F:嘘 s101881: 某a哪里看的野鸡媒体报导他没重训?我看罗德OB甚至他本人 03/05 20:30
135F:→ s101881: 采访都说有在重训,随便拿几篇自己去看吧 03/05 20:30
139F:嘘 s101881: 早在2020年他就在重训了,还买书来看,说他没在重训 XDD 03/05 20:34
140F:推 magicqw: 160速球 14x指叉 真的是怪物… 03/05 20:35
141F:→ hy654: 指叉球这麽快就算是MLB都打不太到阿 只能选掉或等失投 03/05 20:35
142F:→ s101881: 所以你的「球团人员说法」是…? 03/05 20:35
143F:推 kawhizaza: 柔软度 感觉比大谷好很多... 03/05 20:40
144F:推 kawhizaza: 投球协调性 佐佐木>大谷>奥川 03/05 20:47
145F:推 rahim: 乡民不是都说日本养成很废? 03/05 20:49
146F:推 airkobe: 现代职业运动员最大挑战我觉得是维持健康 03/05 20:49
147F:推 juicyfruit: 朗希希 03/05 20:50
148F:推 ramirez: 怪物 03/05 20:53
149F:推 Yanrei: 均速160…… 03/05 21:06
150F:推 s310213: 直球最慢157 03/05 21:06
151F:推 Destery: 有速球保护变化球,可以把打者吃的很死 03/05 21:06
152F:推 jise51103: 茂野吾郎是不是,一直给我掉帽子 03/05 21:11
153F:推 tsai18: 190以上还不高喔 03/05 21:15
154F:推 luckysmallsu: 超猛耶当年大树在洋基均速140就能生存了 03/05 21:31
155F:推 pottr50911: 指差149怎麽打 跟鬼一样 03/05 21:41
156F:推 wei409349: 帽子要掉几次啊 03/05 21:42
157F:推 starcry: 王在洋基均速140? 03/05 21:46
158F:推 a213052002: 强!未来武士队王牌 03/05 22:41
159F:推 cityhunter04: 变化球能到145~149!要怎麽打?? 03/05 22:43
160F:推 RandyOrlando: 棒球大联盟又预言了一位XDD 03/05 22:43
161F:推 Arodz: 当然有重训 都故意让他在二军养一年了 ... 03/05 22:49
162F:推 polanco: 均速140是连变化球都算进去吗 03/05 23:08
163F:推 pikaholo33: 右投版茂野吾郎 03/05 23:14
164F:推 mightymouse: 速球均速160在MLB都极少见了 03/06 00:02
165F:推 Lovesandy8: 均速160?! 03/06 00:16
166F:→ dcdc: 但看转播感觉球速没有数字上那麽快啊! 03/06 00:30
167F:推 jimmy12282: 变化球跟别人直球一样快 好扯 03/06 01:21
168F:→ wahaha888: 投变化球出手後,帽子好像比较容易掉? 03/06 02:05
169F:→ BigSnowgray: 什麽妖魔鬼怪! 03/06 07:42
170F:推 aqrt66558: 太离谱== 03/06 11:27
171F:推 jamesa12: 掉帽子这个我知道 03/06 13:28
172F:推 ghost069: 日本地瓜吗 均速100麦 03/06 15:44
173F:推 sding: 可怖 03/08 12:04